Погода в Уайт-Ривере

ЮАР     25°19′34″S   31°01′19″E
темп.,
°C
ветер,
м/с
пор.,
м/с
влажн.,
%
обл.,
%
осадки,
мм/ч
давл.,
гПа
погр.,
м
26 июля, пн
пн2623:00+6зсз118321 0.0 103611
02:00+6з11941 0.0 103415
05:00+5з21950 0.0 103422
08:00+9зюз12700 0.0 1035130
11:00+16в22410 0.0 10321298
14:00+18всв32332 0.0 10281565
17:00+15всв25450 0.0 1028235
20:00+9сз22720 0.0 103127
27 июля, вт
вт2723:00+7зсз11780 0.0 103213
02:00+6з11830 0.0 103012
05:00+5з11820 0.0 103014
08:00+10з11590 0.0 1030115
11:00+18в22340 0.0 10271072
14:00+21всв33260 0.0 10231557
17:00+17св37340 0.0 1023352
20:00+10зсз21490 0.0 102514
28 июля, ср
ср2823:00+9з21520 0.0 102615
02:00+8з21500 0.0 102516
05:00+7з22510 0.0 102525
08:00+12зюз12370 0.0 102590
11:00+22всв12200 0.0 10231175
14:00+23всв34180 0.0 10191866
17:00+19св37250 0.0 1020273
20:00+12зсз21390 0.0 102315
29 июля, чт
чт2923:00+10з22340 0.0 102418
02:00+9з22340 0.0 102432
05:00+9з22340 0.0 102434
08:00+14зюз23270 0.0 102591
11:00+24ююз36150 0.0 10231962
14:00+26юв25120 0.0 10212698
17:00+21вюв38170 0.0 1024526
20:00+13зсз21340 0.0 102912
30 июля, пт
пт3023:00+11зсз11450 0.0 103110
02:00+9з11570 0.0 103210
05:00+8зюз11697 0.0 103320
08:00+12юз12556 0.0 1034142
11:00+18юв22410 0.0 10331094
14:00+21в22310 0.0 10301582
17:00+18в24400 0.0 1030122
20:00+11сз21710 0.0 103315